STARLINK-34218

Last updated on Thu Jul 03 2025 00:02:06 GMT+0000 (Coordinated Universal Time)

1 64338U 25124X 25183.58335648 -.01626351 00000+0 -31505-1 0 9999 2 64338 43.0004 98.8518 0001780 273.1843 170.5418 15.50011826 4740
UTC large
Height (km)
Speed (km/s)
/
Latitude / Longitude
Inclination (degrees)
Orbital Period (minutes)
Azimuth
Elevation
Range (km)
Doppler Factor

Next 0 passes for location: London (51.5072 / 0.1276)

Sorry there are no passes over London.